Location: ???? ????
(41.4149°N, 22.8816°E)
Time: 14:45:01
(UTC+00:00)

Cosmos 1833 Rocket - Pass Details

Date: 14 July 2020
Orbit: 832 x 840 km, 71.0° (Epoch: 04 August)

Event Time Altitude Azimuth Distance (km) Brightness Sun altitude
Exits shadow 00:45:00 38° 225° (SW) 1,242 3.1 -20.1°
Maximum altitude 00:47:06 68° 295° (WNW) 897 2.7 -19.9°
Drops below altitude 10° 00:52:42 10° 19° (NNE) 2,452 6.2 -19.3°
Sets 00:55:10 0° 22° (NNE) 3,391 7.4 -19.0°
